RYR8152 LFML-LIBD

Flight info

Callsign RYR8152
Flight time N/A
Altitude 37000
Route NASIK P856 RAPED DCT RAPUR DCT RATAP DCT BTA DCT DOKAR DCT SUNEV DCT OST DCT TEA DCT IPKAM DCT AMSOR DCT EKTOL DCT DOGUS
Aircraft B738/M-SDE2E3FGHIRWXY/LB1

Departure

Time N/A
Airport Marseille Provence Airport (LFML)

Arrival

Time 2026-04-27 00:27
Airport Bari Karol Wojtyła International Airport (LIBD)
Time Latitude Longitude Altitude Speed Heading
2026-04-26 23:14 42.94797 8.47906 35778 ft 458 kts 111°
2026-04-26 23:14 42.93670 8.51975 35920 ft 459 kts 111°
2026-04-26 23:14 42.92538 8.56056 36057 ft 459 kts 111°
2026-04-26 23:14 42.91407 8.60133 36220 ft 459 kts 111°
2026-04-26 23:15 42.90274 8.64205 36388 ft 459 kts 111°
2026-04-26 23:15 42.89115 8.68259 36555 ft 458 kts 114°
2026-04-26 23:15 42.87705 8.72162 36684 ft 458 kts 118°
2026-04-26 23:15 42.86177 8.75966 36827 ft 458 kts 120°
2026-04-26 23:16 42.84619 8.79743 36956 ft 458 kts 120°
2026-04-26 23:16 42.83063 8.83528 37094 ft 458 kts 119°
2026-04-26 23:16 42.81518 8.87334 37132 ft 459 kts 119°
2026-04-26 23:17 42.78468 8.94953 37134 ft 459 kts 119°
2026-04-26 23:17 42.75423 9.02595 37136 ft 458 kts 119°
2026-04-26 23:18 42.72385 9.10187 37137 ft 456 kts 119°
2026-04-26 23:18 42.69371 9.17714 37136 ft 455 kts 118°
2026-04-26 23:19 42.66345 9.25270 37137 ft 454 kts 118°
2026-04-26 23:19 42.63319 9.32809 37132 ft 454 kts 119°
2026-04-26 23:20 42.60288 9.40343 37133 ft 454 kts 119°
2026-04-26 23:20 42.57281 9.47892 37126 ft 454 kts 115°
2026-04-26 23:21 42.55078 9.55862 37134 ft 454 kts 108°
2026-04-26 23:21 42.53026 9.63983 37135 ft 455 kts 109°
2026-04-26 23:22 42.50887 9.72070 37133 ft 456 kts 110°
2026-04-26 23:22 42.49170 9.80318 37144 ft 455 kts 100°
2026-04-26 23:23 42.47877 9.88726 37128 ft 456 kts 108°
2026-04-26 23:23 42.45723 9.96756 37142 ft 457 kts 111°
2026-04-26 23:24 42.43408 10.04781 37147 ft 458 kts 111°
2026-04-26 23:24 42.41126 10.12839 37143 ft 458 kts 110°
2026-04-26 23:25 42.38879 10.20915 37150 ft 459 kts 110°
2026-04-26 23:25 42.36638 10.29003 37139 ft 459 kts 110°
2026-04-26 23:26 42.34389 10.37097 37141 ft 459 kts 110°
2026-04-26 23:26 42.32135 10.45176 37142 ft 459 kts 110°
2026-04-26 23:27 42.29892 10.53186 37142 ft 459 kts 110°
2026-04-26 23:27 42.27627 10.61245 37140 ft 458 kts 111°
2026-04-26 23:28 42.25360 10.69289 37136 ft 458 kts 111°
2026-04-26 23:28 42.23088 10.77326 37135 ft 457 kts 111°
2026-04-26 23:29 42.20814 10.85343 37136 ft 457 kts 111°
2026-04-26 23:29 42.18535 10.93353 37137 ft 457 kts 111°
2026-04-26 23:30 42.16266 11.01300 37141 ft 456 kts 111°
2026-04-26 23:30 42.13979 11.09287 37138 ft 456 kts 111°
2026-04-26 23:31 42.11686 11.17270 37135 ft 456 kts 111°
2026-04-26 23:31 42.09390 11.25239 37141 ft 456 kts 111°
2026-04-26 23:32 42.07089 11.33200 37136 ft 457 kts 111°
2026-04-26 23:32 42.04781 11.41161 37142 ft 457 kts 111°
2026-04-26 23:33 42.02465 11.49123 37135 ft 457 kts 111°
2026-04-26 23:33 42.00155 11.57043 37132 ft 457 kts 111°
2026-04-26 23:34 41.97826 11.65001 37135 ft 457 kts 111°
2026-04-26 23:34 41.95489 11.72964 37153 ft 458 kts 111°
2026-04-26 23:35 41.93145 11.80925 37179 ft 458 kts 111°
2026-04-26 23:35 41.91194 11.87531 37195 ft 458 kts 111°
2026-04-26 23:36 41.88443 11.96821 37220 ft 458 kts 111°
2026-04-26 23:36 41.86097 12.04715 37234 ft 458 kts 111°
2026-04-26 23:37 41.84131 12.11316 37232 ft 458 kts 111°
2026-04-26 23:37 41.81764 12.19245 37130 ft 457 kts 111°
2026-04-26 23:38 41.79406 12.27182 37129 ft 457 kts 111°
2026-04-26 23:38 41.77147 12.35139 37127 ft 457 kts 110°
2026-04-26 23:39 41.74906 12.43092 37131 ft 457 kts 110°
2026-04-26 23:39 41.72645 12.51051 37133 ft 456 kts 110°
2026-04-26 23:40 41.70376 12.58986 37132 ft 456 kts 110°
2026-04-26 23:40 41.68101 12.66905 37130 ft 456 kts 111°
2026-04-26 23:41 41.65835 12.74771 37133 ft 455 kts 111°
2026-04-26 23:41 41.63551 12.82673 37130 ft 455 kts 111°
2026-04-26 23:42 41.61263 12.90569 37137 ft 455 kts 111°
2026-04-26 23:42 41.57824 13.02389 37137 ft 455 kts 111°
2026-04-26 23:43 41.55538 13.10214 37145 ft 455 kts 111°
2026-04-26 23:43 41.53235 13.18076 37138 ft 455 kts 111°
2026-04-26 23:44 41.50923 13.25944 37141 ft 455 kts 111°
2026-04-26 23:44 41.48607 13.33804 37146 ft 455 kts 111°
2026-04-26 23:45 41.46284 13.41663 37148 ft 456 kts 111°
2026-04-26 23:45 41.43952 13.49529 37150 ft 456 kts 111°
2026-04-26 23:46 41.41618 13.57375 37092 ft 452 kts 111°
2026-04-26 23:46 41.39334 13.65032 37038 ft 447 kts 111°
2026-04-26 23:47 41.37019 13.72771 37047 ft 452 kts 111°
2026-04-26 23:47 41.34675 13.80585 37059 ft 457 kts 111°
2026-04-26 23:48 41.32313 13.88441 36666 ft 455 kts 111°
2026-04-26 23:48 41.31142 13.92325 36233 ft 451 kts 111°
2026-04-26 23:48 41.29982 13.96198 35729 ft 449 kts 110°
2026-04-26 23:49 41.29102 14.00128 35195 ft 448 kts 102°
2026-04-26 23:49 41.28483 14.04173 34832 ft 444 kts 101°
2026-04-26 23:49 41.27907 14.08193 34417 ft 441 kts 101°
2026-04-26 23:49 41.27336 14.12187 33993 ft 438 kts 101°
2026-04-26 23:50 41.26757 14.16152 33534 ft 435 kts 101°
2026-04-26 23:50 41.26168 14.20075 33110 ft 431 kts 101°
2026-04-26 23:50 41.25573 14.23976 32702 ft 428 kts 101°
2026-04-26 23:50 41.24977 14.27834 32302 ft 425 kts 101°
2026-04-26 23:51 41.24381 14.31666 31901 ft 422 kts 101°
2026-04-26 23:51 41.23789 14.35465 31511 ft 419 kts 101°
2026-04-26 23:51 41.23199 14.39239 31125 ft 416 kts 101°
2026-04-26 23:51 41.22611 14.42998 30737 ft 414 kts 101°
2026-04-26 23:52 41.22028 14.46722 30358 ft 411 kts 101°
2026-04-26 23:52 41.21445 14.50436 29929 ft 409 kts 101°
2026-04-26 23:52 41.20872 14.54077 29500 ft 406 kts 101°
2026-04-26 23:52 41.20296 14.57733 29111 ft 403 kts 101°
2026-04-26 23:53 41.19724 14.61358 28702 ft 400 kts 101°
2026-04-26 23:53 41.19153 14.64963 28306 ft 397 kts 101°
2026-04-26 23:53 41.18588 14.68545 27847 ft 396 kts 101°
2026-04-26 23:53 41.18026 14.72127 27437 ft 394 kts 101°
2026-04-26 23:54 41.17469 14.75678 27044 ft 392 kts 101°
2026-04-26 23:54 41.16913 14.79219 26653 ft 390 kts 101°
2026-04-26 23:54 41.16360 14.82726 26269 ft 387 kts 101°
2026-04-26 23:54 41.15808 14.86217 25890 ft 385 kts 101°
2026-04-26 23:55 41.15260 14.89650 25483 ft 385 kts 101°
2026-04-26 23:55 41.14700 14.93118 25100 ft 383 kts 102°
2026-04-26 23:55 41.14141 14.96567 24737 ft 382 kts 102°
2026-04-26 23:55 41.13583 15.00007 24333 ft 381 kts 102°
2026-04-26 23:56 41.13025 15.03443 23964 ft 380 kts 102°
2026-04-26 23:56 41.12466 15.06881 23548 ft 380 kts 102°
2026-04-26 23:56 41.11910 15.10300 23134 ft 378 kts 102°
2026-04-26 23:56 41.11356 15.13696 22735 ft 376 kts 102°
2026-04-26 23:57 41.10804 15.17075 22362 ft 374 kts 102°
2026-04-26 23:57 41.10254 15.20432 21975 ft 372 kts 102°
2026-04-26 23:57 41.09713 15.23741 21593 ft 370 kts 102°
2026-04-26 23:57 41.09161 15.27111 21218 ft 368 kts 102°
2026-04-26 23:58 41.08624 15.30388 20870 ft 367 kts 102°
2026-04-26 23:58 41.08083 15.33680 20507 ft 365 kts 102°
2026-04-26 23:58 41.07541 15.36971 20122 ft 363 kts 102°
2026-04-26 23:58 41.07003 15.40234 19766 ft 362 kts 102°
2026-04-26 23:59 41.06465 15.43494 19404 ft 361 kts 102°
2026-04-26 23:59 41.05927 15.46744 19045 ft 360 kts 102°
2026-04-26 23:59 41.05388 15.49995 18668 ft 360 kts 102°
2026-04-26 23:59 41.04850 15.53235 18285 ft 359 kts 102°
2026-04-27 00:00 41.04312 15.56466 17891 ft 358 kts 102°
2026-04-27 00:00 41.03784 15.59640 17519 ft 357 kts 102°
2026-04-27 00:00 41.03249 15.62843 17151 ft 355 kts 102°
2026-04-27 00:00 41.02716 15.66029 16788 ft 353 kts 102°
2026-04-27 00:01 41.02167 15.69192 16427 ft 351 kts 107°
2026-04-27 00:01 41.01092 15.72072 16055 ft 348 kts 128°
2026-04-27 00:01 40.99624 15.74595 15737 ft 345 kts 129°
2026-04-27 00:01 40.98155 15.77099 15383 ft 344 kts 129°
2026-04-27 00:02 40.96695 15.79598 15030 ft 342 kts 128°
2026-04-27 00:02 40.95248 15.82091 14680 ft 341 kts 128°
2026-04-27 00:02 40.93805 15.84586 14317 ft 341 kts 128°
2026-04-27 00:02 40.92385 15.87049 13974 ft 340 kts 128°
2026-04-27 00:03 40.90952 15.89536 13594 ft 339 kts 128°
2026-04-27 00:03 40.89530 15.92005 13300 ft 335 kts 128°
2026-04-27 00:03 40.88138 15.94422 13145 ft 327 kts 128°
2026-04-27 00:03 40.86778 15.96782 12978 ft 319 kts 128°
2026-04-27 00:04 40.85446 15.99087 12855 ft 310 kts 128°
2026-04-27 00:04 40.84155 16.01325 12727 ft 302 kts 126°
2026-04-27 00:04 40.83262 16.03774 12598 ft 293 kts 99°
2026-04-27 00:04 40.83241 16.06424 12335 ft 288 kts 77°
2026-04-27 00:05 40.83841 16.08917 12080 ft 284 kts 67°
2026-04-27 00:05 40.84562 16.11341 11810 ft 282 kts 66°
2026-04-27 00:05 40.85268 16.13723 11699 ft 274 kts 66°
2026-04-27 00:05 40.85956 16.16049 11505 ft 270 kts 64°
2026-04-27 00:06 40.87023 16.17983 11223 ft 262 kts 34°
2026-04-27 00:06 40.88626 16.18945 11089 ft 249 kts
2026-04-27 00:06 40.90327 16.18979 11046 ft 244 kts 347°
2026-04-27 00:06 40.91936 16.18339 11010 ft 240 kts 338°
2026-04-27 00:07 40.93486 16.17550 10851 ft 237 kts 337°
2026-04-27 00:07 40.95090 16.17064 10489 ft 241 kts
2026-04-27 00:07 40.96646 16.17862 10196 ft 245 kts 37°
2026-04-27 00:07 40.97720 16.19606 9912 ft 248 kts 61°
2026-04-27 00:08 40.98389 16.21710 9629 ft 248 kts 67°
2026-04-27 00:08 40.98985 16.23853 9365 ft 247 kts 67°
2026-04-27 00:08 40.99579 16.25986 9122 ft 247 kts 67°
2026-04-27 00:08 41.00171 16.28111 8862 ft 245 kts 67°
2026-04-27 00:09 41.00763 16.30194 8613 ft 244 kts 66°
2026-04-27 00:09 41.01365 16.32295 8356 ft 243 kts 66°
2026-04-27 00:09 41.01964 16.34382 8103 ft 242 kts 66°
2026-04-27 00:09 41.02560 16.36458 7878 ft 241 kts 66°
2026-04-27 00:10 41.03153 16.38527 7639 ft 239 kts 66°
2026-04-27 00:10 41.03742 16.40584 7398 ft 239 kts 66°
2026-04-27 00:10 41.04328 16.42637 7169 ft 238 kts 66°
2026-04-27 00:10 41.04912 16.44684 6918 ft 237 kts 66°
2026-04-27 00:11 41.05495 16.46725 6699 ft 236 kts 66°
2026-04-27 00:11 41.06076 16.48753 6442 ft 235 kts 66°
2026-04-27 00:11 41.06658 16.50780 6190 ft 234 kts 66°
2026-04-27 00:11 41.07234 16.52792 5964 ft 232 kts 66°
2026-04-27 00:12 41.07798 16.54759 5744 ft 231 kts 66°
2026-04-27 00:12 41.08366 16.56745 5506 ft 230 kts 66°
2026-04-27 00:12 41.08928 16.58718 5217 ft 228 kts 66°
2026-04-27 00:12 41.09486 16.60678 4985 ft 227 kts 66°
2026-04-27 00:13 41.10042 16.62629 4760 ft 226 kts 66°
2026-04-27 00:13 41.10598 16.64583 4531 ft 225 kts 66°
2026-04-27 00:13 41.11150 16.66529 4276 ft 224 kts 67°
2026-04-27 00:13 41.11708 16.68481 4240 ft 230 kts 67°
2026-04-27 00:14 41.12113 16.70538 4187 ft 233 kts 89°
2026-04-27 00:14 41.11714 16.72532 4141 ft 225 kts 122°
2026-04-27 00:14 41.10598 16.73870 4026 ft 214 kts 157°
2026-04-27 00:14 41.09142 16.74104 3929 ft 216 kts 194°
2026-04-27 00:15 41.07762 16.73328 3894 ft 216 kts 210°
2026-04-27 00:15 41.06462 16.72360 3895 ft 213 kts 211°
2026-04-27 00:15 41.05186 16.71387 3873 ft 209 kts 211°
2026-04-27 00:15 41.03920 16.70418 3873 ft 211 kts 211°
2026-04-27 00:16 41.02647 16.69445 3867 ft 212 kts 211°
2026-04-27 00:16 41.01373 16.68470 3886 ft 213 kts 211°
2026-04-27 00:16 41.00084 16.67480 3955 ft 214 kts 211°
2026-04-27 00:16 40.98785 16.66483 3945 ft 217 kts 211°
2026-04-27 00:17 40.97494 16.65496 3945 ft 216 kts 211°
2026-04-27 00:17 40.96193 16.64498 3951 ft 218 kts 211°
2026-04-27 00:17 40.94884 16.63492 3949 ft 217 kts 211°
2026-04-27 00:17 40.93576 16.62487 3957 ft 217 kts 212°
2026-04-27 00:18 40.92274 16.61480 3949 ft 216 kts 211°
2026-04-27 00:18 40.90982 16.60484 3987 ft 215 kts 211°
2026-04-27 00:18 40.89675 16.59485 3950 ft 217 kts 212°
2026-04-27 00:18 40.88378 16.58497 3939 ft 214 kts 211°
2026-04-27 00:19 40.87096 16.57522 3951 ft 211 kts 211°
2026-04-27 00:19 40.85923 16.56403 3938 ft 205 kts 235°
2026-04-27 00:19 40.85416 16.54693 3957 ft 203 kts 271°
2026-04-27 00:19 40.85762 16.52955 3789 ft 196 kts 307°
2026-04-27 00:20 40.86812 16.51878 3454 ft 194 kts 345°
2026-04-27 00:20 40.88120 16.51902 3093 ft 194 kts 22°
2026-04-27 00:20 40.89125 16.53017 3030 ft 189 kts 54°
2026-04-27 00:20 40.89886 16.54479 3063 ft 198 kts 53°
2026-04-27 00:21 40.90829 16.55814 3053 ft 200 kts 38°
2026-04-27 00:21 40.91949 16.56920 3045 ft 201 kts 21°
2026-04-27 00:21 40.93286 16.57296 3060 ft 194 kts
2026-04-27 00:21 40.94632 16.57487 3049 ft 195 kts
2026-04-27 00:22 40.95986 16.57687 3035 ft 196 kts
2026-04-27 00:22 40.97340 16.57884 3076 ft 197 kts
2026-04-27 00:22 40.98703 16.58081 3039 ft 196 kts
2026-04-27 00:22 41.00048 16.58271 3033 ft 194 kts
2026-04-27 00:23 41.01394 16.58453 3048 ft 195 kts
2026-04-27 00:23 41.02296 16.58571 3061 ft 197 kts
2026-04-27 00:23 41.03657 16.58748 3050 ft 196 kts
2026-04-27 00:23 41.05458 16.58983 2994 ft 197 kts
2026-04-27 00:24 41.06390 16.59106 2818 ft 201 kts
2026-04-27 00:24 41.08118 16.59795 2612 ft 196 kts 28°
2026-04-27 00:24 41.09316 16.60738 2302 ft 204 kts 37°
2026-04-27 00:24 41.09900 16.61742 2120 ft 204 kts 68°
2026-04-27 00:25 41.10190 16.63549 1863 ft 204 kts 74°
2026-04-27 00:25 41.10823 16.65192 1606 ft 199 kts 54°
2026-04-27 00:25 41.11387 16.66849 1334 ft 199 kts 78°
2026-04-27 00:25 41.11681 16.68585 1063 ft 189 kts 60°
2026-04-27 00:26 41.12275 16.70042 962 ft 172 kts 68°
2026-04-27 00:26 41.12602 16.71556 647 ft 170 kts 73°
2026-04-27 00:26 41.12971 16.73010 384 ft 164 kts 67°
2026-04-27 00:26 41.13381 16.74402 146 ft 159 kts 69°
2026-04-27 00:27 41.13744 16.75654 139 ft 120 kts 68°
2026-04-27 00:27 41.13964 16.76439 123 ft 53 kts 70°
2026-04-27 00:27 41.13932 16.76715 122 ft 17 kts 188°
2026-04-27 00:27 41.13829 16.76655 132 ft 16 kts 206°
2026-04-27 00:28 41.13737 16.76582 135 ft 14 kts 187°
2026-04-27 00:28 41.13662 16.76502 135 ft 14 kts 240°
2026-04-27 00:28 41.13617 16.76387 135 ft 14 kts 234°
2026-04-27 00:28 41.13544 16.76399 135 ft 11 kts 156°
2026-04-27 00:29 41.13542 16.76400 135 ft 0 kts 156°